Tracking 30160 objects as of 14-Feb-2025
HD Live streaming from Space Station
objects crossing your sky now

ATLAS 5 CENTAUR DEB

Track ATLAS 5 CENTAUR DEB now!


NORAD ID: 43990
Int'l Code: 2014-055AV
Perigee: 7,802.7 km
Apogee: 34,788.9 km
Inclination: 19.7 °
Period: 763.3 minutes
Semi major axis: 27666 km
RCS: Unknown
Launch date: September 17, 2014
Source: United States (US)
Launch site: AIR FORCE EASTERN TEST RANGE (AFETR)

Note: This is SATELLITE DEBRIS
Your satellite tracking list
Your tracking list is empty




NASA's NSSDC Master Catalog

Two Line Element Set (TLE):
1 43990U 14055AV  25041.08949388 -.00000035  00000-0  00000+0 0  9999
2 43990  19.7152 183.9466 4877008  96.0513 319.3194  1.88653796 43827
Source of the keplerian elements: AFSPC